time_stamp(utc),avg(mph),gust(mph),direction(deg),12m_air_temp(f),sonic_u(cm/s),sonic_v(cm/s),sonic_w(cm/s),pressure,2m_air_temp(f),pyranometer(W/m^2)
"2017-01-15 00:00:21+00",5.9,6.9,,34.7,215,141,23,1029.32,34.5,0
"2017-01-15 00:05:21+00",6.2,6.2,,34.8,194,166,8,1029.34,34.6,0
"2017-01-15 00:10:21+00",6.2,6.2,,34.9,210,158,8,1029.15,34.7,0
"2017-01-15 00:15:21+00",7.2,8.2,,35.1,261,172,13,1029.18,34.9,0
"2017-01-15 00:20:21+00",6.6,7.6,,35.2,250,143,18,1029.15,34.9,0
"2017-01-15 00:25:21+00",6.7,7.7,,35.2,270,118,13,1029,35,0
"2017-01-15 00:30:21+00",6.0,7.0,,35.3,232,110,17,1028.96,35.1,0
"2017-01-15 00:35:21+00",5.3,7.3,,35.3,214,80,16,1028.81,35.1,0
"2017-01-15 00:40:21+00",6.2,7.2,,35.3,261,100,15,1028.85,35.2,0
"2017-01-15 00:45:21+00",5.1,6.1,,35.5,189,106,7,1028.72,35.2,0
"2017-01-15 00:50:21+00",4.0,5.0,,35.5,155,74,6,1028.69,35.3,0
"2017-01-15 00:55:21+00",5.1,6.1,,35.5,198,86,14,1028.49,35.3,0
"2017-01-15 01:00:21+00",6.4,7.4,,35.6,243,132,12,1028.49,35.4,0
"2017-01-15 01:05:21+00",4.9,5.9,,35.8,197,68,14,1028.4,35.5,0
"2017-01-15 01:10:21+00",5.7,5.7,,35.8,242,60,14,1028.29,35.6,0
"2017-01-15 01:15:21+00",5.5,6.5,,35.9,232,74,17,1028.1,35.7,0
"2017-01-15 01:20:21+00",6.5,7.5,,36,252,121,14,1028.06,35.7,0
"2017-01-15 01:25:21+00",6.1,7.1,,36,230,132,4,1028.02,35.7,0
"2017-01-15 01:30:21+00",5.4,6.4,,36.1,156,156,14,1028.14,35.8,0
"2017-01-15 01:35:21+00",4.2,5.2,,36,104,121,5,1028.07,35.7,0
"2017-01-15 01:40:21+00",4.4,5.4,,36,103,144,-1,1028.15,35.7,0
"2017-01-15 01:45:21+00",4.5,5.5,,36,93,158,6,1028.02,35.7,0
"2017-01-15 01:50:21+00",3.7,4.7,,36,22,143,6,1027.97,35.7,0
"2017-01-15 01:55:21+00",4.7,5.7,,36,32,188,3,1027.87,35.8,0
"2017-01-15 02:00:21+00",5.5,6.5,,35.9,-14,232,13,1028.08,35.7,0
"2017-01-15 02:05:21+00",6.3,7.3,,35.2,-89,258,29,1028,35.5,0
"2017-01-15 02:10:21+00",6.5,7.5,,35,-46,278,15,1027.93,35.2,0
"2017-01-15 02:15:21+00",7.4,8.4,,34.9,-63,319,-3,1027.86,35,0
"2017-01-15 02:20:21+00",6.1,6.1,,34.9,-90,234,17,1027.84,35,0
"2017-01-15 02:25:21+00",6.4,7.4,,34.8,-72,256,8,1027.67,34.9,0
"2017-01-15 02:30:21+00",6.3,7.3,,34.7,-81,254,18,1027.77,34.8,0
"2017-01-15 02:35:21+00",6.6,7.6,,34.6,-67,271,13,1027.7,34.7,0
"2017-01-15 02:40:21+00",8.2,9.2,,34.4,-113,339,12,1027.82,34.6,0
"2017-01-15 02:45:21+00",8.5,9.5,,34.2,-95,354,8,1027.77,34.4,0
"2017-01-15 02:50:21+00",7.4,8.4,,34.1,-86,311,17,1027.63,34.3,0
"2017-01-15 02:55:21+00",7.7,8.7,,33.9,-71,327,12,1027.57,34.1,0
"2017-01-15 03:00:21+00",6.8,7.8,,33.8,-86,273,22,1027.59,34,0
"2017-01-15 03:05:21+00",8.1,9.1,,33.8,-122,327,12,1027.54,33.9,0
"2017-01-15 03:10:21+00",7.1,8.1,,33.8,-97,282,29,1027.6,33.9,0
"2017-01-15 03:15:21+00",7.7,8.7,,33.7,-114,322,19,1027.6,33.9,0
"2017-01-15 03:20:21+00",7.5,8.5,,33.7,-88,311,7,1027.32,33.8,0
"2017-01-15 03:25:21+00",8.0,9.0,,33.7,-124,328,17,1027.37,33.8,0
"2017-01-15 03:30:21+00",7.1,8.1,,33.7,-97,285,7,1027.23,33.8,0
"2017-01-15 03:35:21+00",8.3,9.3,,33.7,-138,334,16,1027.15,33.8,0
"2017-01-15 03:40:21+00",7.6,8.6,,33.7,-102,308,8,1026.95,33.8,0
"2017-01-15 03:45:21+00",6.5,7.5,,33.7,-116,251,6,1026.91,33.7,0
"2017-01-15 03:50:21+00",6.4,7.4,,33.6,-132,240,12,1026.95,33.8,0
"2017-01-15 03:55:21+00",5.5,6.5,,33.6,-94,214,8,1026.73,33.7,0
"2017-01-15 04:00:21+00",4.8,4.8,,33.7,-137,155,21,1026.69,33.8,0
"2017-01-15 04:05:21+00",5.7,6.7,,33.7,-142,205,19,1026.64,33.8,0
"2017-01-15 04:10:21+00",5.9,6.9,,33.7,-149,206,18,1026.54,33.8,0
"2017-01-15 04:15:21+00",5.2,6.2,,33.7,-138,172,21,1026.34,33.8,0
"2017-01-15 04:20:21+00",6.0,7.0,,33.6,-154,213,17,1026.34,33.8,0
"2017-01-15 04:25:21+00",6.3,7.3,,33.5,-175,205,13,1026.31,33.7,0
"2017-01-15 04:30:21+00",7.3,8.3,,33.5,-198,250,19,1026.43,33.7,0
"2017-01-15 04:35:21+00",7.6,8.6,,33.5,-213,263,22,1026.42,33.7,0
"2017-01-15 04:40:21+00",6.8,7.8,,33.5,-152,253,14,1026.24,33.7,0
"2017-01-15 04:45:21+00",7.6,8.6,,33.5,-157,281,8,1026.32,33.7,0
"2017-01-15 04:50:21+00",7.3,8.3,,33.5,-165,264,22,1026.36,33.7,0
"2017-01-15 04:55:21+00",6.1,7.1,,33.6,-122,232,26,1026.13,33.7,0
"2017-01-15 05:00:21+00",7.1,8.1,,33.6,-98,281,33,1026.17,33.7,0
"2017-01-15 05:05:21+00",8.2,9.2,,33.4,-156,313,29,1026.1,33.6,0
"2017-01-15 05:10:21+00",7.1,7.1,,33.3,-152,266,38,1026.05,33.5,0
"2017-01-15 05:15:21+00",7.1,8.1,,33.3,-48,296,2,1025.91,33.4,0
"2017-01-15 05:20:21+00",7.2,8.2,,33.3,-113,287,11,1025.85,33.4,0
"2017-01-15 05:25:21+00",5.8,6.8,,33.3,-115,212,21,1025.74,33.4,0
"2017-01-15 05:30:21+00",5.3,6.3,,33.3,-75,206,19,1025.53,33.4,0
"2017-01-15 05:35:21+00",5.6,6.6,,33.4,-121,201,17,1025.45,33.4,0
"2017-01-15 05:40:21+00",6.1,7.1,,33.3,-109,232,16,1025.48,33.4,0
"2017-01-15 05:45:21+00",6.9,7.9,,33.3,-101,275,7,1025.44,33.4,0
"2017-01-15 05:50:21+00",5.2,5.2,,33.3,-90,190,14,1025.36,33.3,0
"2017-01-15 05:55:21+00",5.2,6.2,,33.3,-134,173,15,1025.23,33.4,0
"2017-01-15 06:00:21+00",6.1,6.1,,33.4,-167,203,18,1025.25,33.4,0
"2017-01-15 06:05:21+00",6.2,6.2,,33.5,-205,172,12,1025.28,33.5,0
"2017-01-15 06:10:21+00",7.5,8.5,,33.5,-270,188,20,1025.35,33.5,0
"2017-01-15 06:15:21+00",7.2,9.2,,33.6,-232,214,29,1025.28,33.6,0
"2017-01-15 06:20:21+00",8.7,9.7,,33.5,-214,311,26,1025.44,33.5,0
"2017-01-15 06:25:21+00",9.3,10.3,,33.5,-187,358,23,1025.38,33.5,0
"2017-01-15 06:30:21+00",7.9,8.9,,33.3,-179,294,19,1025.42,33.4,0
"2017-01-15 06:35:21+00",7.1,8.1,,33.3,-182,242,23,1025.35,33.3,0
"2017-01-15 06:40:21+00",7.2,8.2,,33.3,-170,263,20,1025.46,33.3,0
"2017-01-15 06:45:21+00",6.2,7.2,,33.3,-137,219,37,1025.48,33.3,0
"2017-01-15 06:50:21+00",7.4,8.4,,33.3,-150,276,26,1025.47,33.3,0
"2017-01-15 06:55:21+00",8.2,9.2,,33.2,-220,280,24,1025.32,33.3,0
"2017-01-15 07:00:21+00",9.0,10.0,,33.2,-219,318,24,1025.5,33.3,0
"2017-01-15 07:05:21+00",10.2,11.2,,33.1,-296,341,29,1025.48,33.3,0
"2017-01-15 07:10:21+00",8.8,10.8,,33.2,-228,315,32,1025.59,33.2,0
"2017-01-15 07:15:21+00",9.7,10.7,,33.1,-245,337,25,1025.66,33.2,0
"2017-01-15 07:20:21+00",9.1,10.1,,33.1,-221,328,21,1025.64,33.2,0
"2017-01-15 07:25:21+00",7.5,9.5,,33.2,-200,267,44,1025.57,33.2,0
"2017-01-15 07:30:21+00",9.0,10.0,,33.1,-201,338,18,1025.63,33.1,0
"2017-01-15 07:35:21+00",10.6,11.6,,33,-261,376,26,1025.62,33.1,0
"2017-01-15 07:40:21+00",9.2,11.2,,33,-243,316,30,1025.56,33,0
"2017-01-15 07:45:21+00",9.1,10.1,,33,-201,335,16,1025.58,33,0
"2017-01-15 07:50:21+00",9.2,10.2,,33,-187,349,23,1025.48,32.9,0
"2017-01-15 07:55:21+00",8.4,10.4,,32.9,-138,335,25,1025.49,32.9,0
"2017-01-15 08:00:21+00",8.1,10.1,,32.9,-74,342,10,1025.52,32.9,0
"2017-01-15 08:05:21+00",7.8,8.8,,32.8,-29,333,10,1025.33,32.9,0
"2017-01-15 08:10:21+00",7.5,9.5,,32.8,-65,316,14,1025.32,32.8,0
"2017-01-15 08:15:21+00",7.8,9.8,,32.7,-92,327,31,1025.29,32.6,0
"2017-01-15 08:20:21+00",8.9,9.9,,32.6,-92,376,17,1025.18,32.5,0
"2017-01-15 08:25:21+00",9.7,10.7,,32.6,-97,406,4,1025.26,32.5,0
"2017-01-15 08:30:21+00",9.0,11.0,,32.6,-108,372,15,1025.32,32.4,0
"2017-01-15 08:35:21+00",9.1,10.1,,32.6,-186,349,33,1025.27,32.4,0
"2017-01-15 08:40:21+00",9.0,9.0,,32.6,-148,361,8,1025.29,32.5,0
"2017-01-15 08:45:21+00",6.9,7.9,,32.6,-119,271,20,1025.2,32.4,0
"2017-01-15 08:50:21+00",7.2,8.2,,32.6,-146,279,16,1025.13,32.4,0
"2017-01-15 08:55:21+00",6.8,7.8,,32.5,-114,266,14,1025.1,32.3,0
"2017-01-15 09:00:21+00",7.0,8.0,,32.6,-118,279,17,1025.17,32.4,0
"2017-01-15 09:05:21+00",8.7,10.7,,32.7,-193,318,21,1025.11,32.4,0
"2017-01-15 09:10:21+00",8.5,9.5,,32.9,-247,280,21,1025.11,32.5,0
"2017-01-15 09:15:21+00",9.1,10.1,,33,-241,315,21,1025.1,32.6,0
"2017-01-15 09:20:21+00",7.7,8.7,,33.1,-226,260,22,1025.12,32.7,0
"2017-01-15 09:25:21+00",9.0,10.0,,33.1,-267,294,39,1025.06,32.7,0
"2017-01-15 09:30:21+00",11.4,12.4,,33.3,-400,306,31,1025.1,32.8,0
"2017-01-15 09:35:21+00",9.9,10.9,,33.4,-364,254,32,1025.05,32.9,0
"2017-01-15 09:40:21+00",11.0,13.0,,33.3,-390,315,38,1025.17,32.9,0
"2017-01-15 09:45:21+00",12.4,14.4,,33.3,-447,337,35,1025.15,32.9,0
"2017-01-15 09:50:21+00",13.0,14.0,,33.2,-454,346,39,1025.26,32.9,0
"2017-01-15 09:55:21+00",14.5,16.5,,33.1,-472,436,44,1025.12,32.7,0
"2017-01-15 10:00:21+00",15.6,17.6,,32.8,-497,487,45,1025.3,32.5,0
"2017-01-15 10:05:21+00",13.5,14.5,,32.8,-394,460,36,1025.31,32.4,0
"2017-01-15 10:10:21+00",13.1,16.1,,32.7,-384,428,26,1025.38,32.3,0
"2017-01-15 10:15:21+00",13.5,14.5,,32.6,-374,465,35,1025.36,32.2,0
"2017-01-15 10:20:21+00",11.8,14.8,,32.6,-341,393,29,1025.51,32.2,0
"2017-01-15 10:25:21+00",12.1,13.1,,32.5,-301,437,23,1025.47,32.2,0
"2017-01-15 10:30:21+00",12.5,13.5,,32.6,-368,415,37,1025.63,32.3,0
"2017-01-15 10:35:21+00",11.5,13.5,,32.6,-337,388,44,1025.51,32.3,0
"2017-01-15 10:40:21+00",11.8,13.8,,32.5,-323,412,33,1025.6,32.3,0
"2017-01-15 10:45:21+00",10.2,11.2,,32.5,-256,361,55,1025.71,32.2,0
"2017-01-15 10:50:21+00",13.2,15.2,,32.5,-350,472,30,1025.64,32.2,0
"2017-01-15 10:55:21+00",11.6,13.6,,32.6,-320,404,27,1025.83,32.2,0
"2017-01-15 11:00:21+00",13.9,15.9,,32.6,-379,499,40,1025.99,32.2,0
"2017-01-15 11:05:21+00",12.0,15.0,,32.5,-271,448,34,1026.15,32.2,0
"2017-01-15 11:10:21+00",12.8,15.8,,32.4,-239,507,21,1026.18,32.1,0
"2017-01-15 11:15:21+00",10.8,11.8,,32.4,-240,413,32,1026.15,32,0
"2017-01-15 11:20:21+00",10.8,11.8,,32.3,-240,419,26,1026.31,31.9,0
"2017-01-15 11:25:21+00",8.4,9.4,,32.2,-112,348,16,1026.3,31.8,0
"2017-01-15 11:30:21+00",7.4,8.4,,32.1,-118,292,23,1026.47,31.6,0
"2017-01-15 11:35:21+00",9.1,11.1,,32,-141,355,30,1026.58,31.5,0
"2017-01-15 11:40:21+00",7.2,8.2,,31.9,-131,288,18,1026.66,31.2,0
"2017-01-15 11:45:21+00",7.5,9.5,,31.7,-94,307,16,1026.7,31,0
"2017-01-15 11:50:21+00",7.2,8.2,,31.7,-117,286,19,1026.84,30.8,0
"2017-01-15 11:55:21+00",8.3,9.3,,31.6,-153,322,18,1026.87,30.7,0
"2017-01-15 12:00:21+00",7.2,8.2,,31.6,-142,277,27,1026.91,30.7,0
"2017-01-15 12:05:21+00",8.5,9.5,,31.5,-208,309,30,1026.98,30.7,0
"2017-01-15 12:10:21+00",9.2,11.2,,31.5,-211,338,13,1027.1,30.7,0
"2017-01-15 12:15:21+00",7.6,8.6,,31.4,-139,293,24,1027.14,30.6,0
"2017-01-15 12:20:21+00",9.0,10.0,,31.4,-225,327,22,1027.31,30.6,0
"2017-01-15 12:25:21+00",9.1,11.1,,31.4,-216,327,27,1027.35,30.6,0
"2017-01-15 12:30:21+00",8.4,9.4,,31.3,-210,300,27,1027.42,30.6,0
"2017-01-15 12:35:21+00",9.0,10.0,,31.3,-237,312,21,1027.42,30.6,0
"2017-01-15 12:40:21+00",9.4,10.4,,31.3,-255,332,34,1027.44,30.7,0
"2017-01-15 12:45:21+00",10.8,11.8,,31.3,-292,374,23,1027.46,30.8,0
"2017-01-15 12:50:21+00",12.1,13.1,,31.3,-340,414,25,1027.44,31.1,2.5
"2017-01-15 12:55:21+00",10.7,12.7,,31.5,-311,378,49,1027.57,31.3,6.7
"2017-01-15 13:00:21+00",10.7,11.7,,31.5,-251,388,46,1027.63,31.6,8.4
"2017-01-15 13:05:21+00",11.1,13.1,,31.6,-304,399,46,1027.65,31.8,15.2
"2017-01-15 13:10:21+00",11.2,12.2,,31.6,-248,427,37,1027.77,32,17.3
"2017-01-15 13:15:21+00",13.3,16.3,,31.6,-331,484,22,1027.81,32.1,26.7
"2017-01-15 13:20:21+00",13.2,15.2,,31.6,-231,540,23,1027.85,32.3,33.5
"2017-01-15 13:25:21+00",11.9,12.9,,31.7,-205,480,12,1027.86,32.6,40.4
"2017-01-15 13:30:21+00",12.2,16.2,,31.9,-158,499,13,1027.91,32.9,52.5
"2017-01-15 13:35:21+00",12.5,13.5,,31.9,-103,537,23,1027.9,33,67.9
"2017-01-15 13:40:21+00",12.7,14.7,,32,-209,522,50,1027.95,33.3,73.4
"2017-01-15 13:45:21+00",10.8,13.8,,32.1,-165,442,56,1028.09,33.3,74.3
"2017-01-15 13:50:21+00",14.8,16.8,,32.1,-209,610,16,1028.01,33.4,108
"2017-01-15 13:55:21+00",13.7,15.7,,32.2,-195,574,41,1027.92,33.6,121.5
"2017-01-15 14:00:21+00",15.9,19.9,,32.3,-220,665,33,1027.91,33.7,143.9
"2017-01-15 14:05:21+00",17.0,20.0,,32.4,-284,688,17,1027.94,33.7,128.4
"2017-01-15 14:10:21+00",16.5,19.5,,32.4,-219,691,33,1028.01,33.6,142.5
"2017-01-15 14:15:21+00",16.0,19.0,,32.6,-166,684,26,1028.05,33.9,170.4
"2017-01-15 14:20:21+00",18.4,23.4,,32.9,-226,777,34,1028.1,34.1,178.9
"2017-01-15 14:25:21+00",17.6,20.6,,32.8,-146,752,9,1028.11,34.2,185.8
"2017-01-15 14:30:21+00",18.0,21.0,,33,-68,781,13,1028.24,34.4,194.1
"2017-01-15 14:35:21+00",19.2,23.2,,33,-121,835,16,1028.16,34.6,200.4
"2017-01-15 14:40:21+00",16.9,20.9,,33.3,-116,746,28,1028.11,34.7,204.9
"2017-01-15 14:45:21+00",15.8,18.8,,33.4,-77,692,36,1028.23,34.9,217.8
"2017-01-15 14:50:21+00",18.6,22.6,,33.5,-109,804,19,1028.36,35.2,222.4
"2017-01-15 14:55:21+00",13.8,20.8,,33.7,-132,602,38,1028.31,35.2,211.9
"2017-01-15 15:00:21+00",16.8,18.8,,33.9,-52,742,24,1028.39,35.5,221.6
"2017-01-15 15:05:21+00",14.2,16.2,,34.3,-55,630,26,1028.35,35.8,227.7
"2017-01-15 15:10:21+00",15.9,17.9,,34.3,-87,698,25,1028.31,36,226.7
"2017-01-15 15:15:21+00",15.8,17.8,,34.6,-56,687,18,1028.3,36.3,235.7
"2017-01-15 15:20:21+00",15.8,18.8,,34.6,-62,705,21,1028.23,36.4,238.6
"2017-01-15 15:25:21+00",17.6,20.6,,34.6,-96,766,27,1028.19,36.5,241.7
"2017-01-15 15:30:21+00",16.6,18.6,,34.8,-33,728,20,1028.29,36.6,251.7
"2017-01-15 15:35:21+00",16.6,18.6,,34.7,-133,716,14,1028.26,36.8,258.6
"2017-01-15 15:40:21+00",16.6,18.6,,35,-123,717,15,1028.17,37.2,264
"2017-01-15 15:45:21+00",12.2,15.2,,35.2,-91,532,50,1028.03,37.5,263.4
"2017-01-15 15:50:21+00",16.3,18.3,,35.1,-90,714,13,1028.05,37.8,265.9
"2017-01-15 15:55:21+00",15.0,17.0,,35.1,-167,638,33,1027.93,37.7,250.9
"2017-01-15 16:00:21+00",15.9,18.9,,35.3,-306,631,49,1027.82,37.9,276.9
"2017-01-15 16:05:21+00",15.1,17.1,,35.6,-155,647,19,1027.8,38.1,268.4
"2017-01-15 16:10:21+00",14.0,15.0,,35.5,-90,609,16,1027.78,38.3,273.6
"2017-01-15 16:15:21+00",16.3,18.3,,35.9,-66,714,12,1027.6,38.5,268
"2017-01-15 16:20:21+00",15.0,17.0,,35.9,-169,631,22,1027.57,38.7,235.5
"2017-01-15 16:25:21+00",14.9,16.9,,36,-161,637,14,1027.52,38.9,281.5
"2017-01-15 16:30:21+00",14.1,16.1,,35.9,-211,575,26,1027.46,38.9,275.1
"2017-01-15 16:35:21+00",13.7,15.7,,36.2,-248,554,33,1027.37,39.1,276.6
"2017-01-15 16:40:21+00",13.3,15.3,,36.5,-45,585,12,1027.22,39.4,290.6
"2017-01-15 16:45:21+00",13.4,15.4,,36.7,-48,584,0,1027.19,39.7,290.6
"2017-01-15 16:50:21+00",11.9,14.9,,37.1,11,524,7,1027.22,40.2,294.6
"2017-01-15 16:55:21+00",11.1,14.1,,37.3,13,484,31,1027.1,40.4,293.1
"2017-01-15 17:00:21+00",10.3,11.3,,37.5,-98,427,49,1027.06,40.5,290
"2017-01-15 17:05:21+00",10.4,11.4,,37.2,-135,430,30,1026.89,40.5,297.1
"2017-01-15 17:10:21+00",9.2,11.2,,37.2,-67,392,0,1026.98,40.4,298.8
"2017-01-15 17:15:21+00",9.1,11.1,,37.4,-96,384,9,1026.85,40.5,298
"2017-01-15 17:20:21+00",8.0,9.0,,37.7,-74,333,31,1026.8,40.8,292.6
"2017-01-15 17:25:21+00",7.7,9.7,,37.9,-117,310,33,1026.66,41.2,296.3
"2017-01-15 17:30:21+00",9.0,11.0,,37.6,-319,234,14,1026.6,41,293.8
"2017-01-15 17:35:21+00",9.9,11.9,,38,-161,379,46,1026.54,40.9,294.5
"2017-01-15 17:40:21+00",8.3,10.3,,37.8,-307,219,65,1026.55,40.8,297.8
"2017-01-15 17:45:21+00",13.8,15.8,,38.1,-272,546,18,1026.58,41.2,299.8
"2017-01-15 17:50:21+00",10.0,12.0,,37.9,-217,378,32,1026.39,41.5,293.5
"2017-01-15 17:55:21+00",9.0,11.0,,38.2,-281,300,67,1026.37,41.5,285.5
"2017-01-15 18:00:21+00",8.7,10.7,,38,-288,259,17,1026.38,41.2,284.7
"2017-01-15 18:05:21+00",6.9,8.9,,38.2,-238,176,52,1026.31,40.7,287.9
"2017-01-15 18:10:21+00",10.2,11.2,,38.4,-342,297,31,1026.38,40.9,282.7
"2017-01-15 18:15:21+00",9.0,10.0,,38.4,-326,219,12,1026.28,40.8,283.1
"2017-01-15 18:20:21+00",7.2,9.2,,38.5,-249,199,30,1026.38,40.7,273.9
"2017-01-15 18:25:21+00",9.2,11.2,,38.4,-341,220,13,1026.3,40.7,239.3
"2017-01-15 18:30:21+00",10.7,10.7,,38.4,-387,276,9,1026.43,40.5,281.3
"2017-01-15 18:35:21+00",10.4,11.4,,38.6,-358,279,11,1026.35,40.7,237.7
"2017-01-15 18:40:21+00",11.6,12.6,,38.9,-372,353,26,1026.38,40.8,266.7
"2017-01-15 18:45:21+00",11.6,12.6,,38.9,-384,336,20,1026.34,40.9,267.1
"2017-01-15 18:50:21+00",9.8,9.8,,39.3,-327,288,25,1026.35,40.9,244.6
"2017-01-15 18:55:21+00",9.1,11.1,,39.2,-393,129,51,1026.42,41.1,254.9
"2017-01-15 19:00:21+00",6.6,8.6,,38.9,-260,118,12,1026.28,41.1,254.7
"2017-01-15 19:05:21+00",6.9,7.9,,39.4,-257,157,30,1026.31,41.5,227.7
"2017-01-15 19:10:21+00",7.7,8.7,,39.3,-269,190,16,1026.19,41.2,43.5
"2017-01-15 19:15:21+00",7.8,8.8,,39.6,-251,240,33,1026.26,41.3,206.2
"2017-01-15 19:20:21+00",6.7,7.7,,39.5,-227,177,7,1026.26,41.2,157
"2017-01-15 19:25:21+00",8.5,11.5,,39.7,-266,256,30,1026.25,41.2,158.4
"2017-01-15 19:30:21+00",9.2,11.2,,40,-274,303,33,1026.22,41.5,211.5
"2017-01-15 19:35:21+00",8.3,10.3,,40.2,-215,292,14,1026.09,42,195.6
"2017-01-15 19:40:21+00",6.5,7.5,,40.2,-214,175,42,1026.1,42.3,172.4
"2017-01-15 19:45:21+00",7.6,8.6,,40,-239,227,24,1026.28,41.8,76.2
"2017-01-15 19:50:21+00",8.6,10.6,,40,-239,294,50,1026.25,41.4,81.6
"2017-01-15 19:55:21+00",9.2,11.2,,39.9,-288,281,32,1026.21,41.2,157.5
"2017-01-15 20:00:21+00",8.4,9.4,,40.1,-284,233,22,1026.36,41.4,177.6
"2017-01-15 20:05:21+00",5.7,6.7,,40.4,-196,151,56,1026.39,41.7,164.4
"2017-01-15 20:10:21+00",8.0,8.0,,40.4,-281,220,24,1026.47,42.1,163.9
"2017-01-15 20:15:21+00",7.6,9.6,,40.5,-102,309,17,1026.44,42.1,150.4
"2017-01-15 20:20:21+00",7.8,8.8,,40.6,-68,323,9,1026.55,42.6,130.8
"2017-01-15 20:25:21+00",8.3,10.3,,40.8,-163,316,5,1026.37,43,125.7
"2017-01-15 20:30:21+00",6.1,7.1,,40.7,-155,213,35,1026.39,42.9,115.1
"2017-01-15 20:35:21+00",5.8,6.8,,40.7,-207,145,25,1026.46,42.8,104
"2017-01-15 20:40:21+00",9.0,11.0,,41,-89,377,9,1026.4,42.7,91.1
"2017-01-15 20:45:21+00",7.1,8.1,,40.7,-116,286,45,1026.49,42.9,86.5
"2017-01-15 20:50:21+00",9.9,10.9,,40.6,-215,371,13,1026.49,42.9,61.2
"2017-01-15 20:55:21+00",8.6,9.6,,40.5,-200,321,27,1026.45,42.7,66.3
"2017-01-15 21:00:21+00",8.6,9.6,,40.4,-172,332,22,1026.33,42.7,53.3
"2017-01-15 21:05:21+00",8.1,9.1,,40.2,-159,312,23,1026.43,42.3,40.7
"2017-01-15 21:10:21+00",7.5,8.5,,40.2,-117,303,12,1026.52,42,30.8
"2017-01-15 21:15:21+00",7.2,9.2,,40.1,-106,287,17,1026.49,41.5,16.4
"2017-01-15 21:20:21+00",6.7,7.7,,39.9,-63,273,15,1026.77,40.8,1.6
"2017-01-15 21:25:21+00",6.1,6.1,,39.7,-81,243,10,1026.87,40.4,0
"2017-01-15 21:30:21+00",6.0,7.0,,39.5,-12,251,9,1026.82,39.6,0
"2017-01-15 21:35:21+00",7.2,7.2,,39.2,-32,311,11,1027.02,38.7,0
"2017-01-15 21:40:21+00",6.8,6.8,,39.2,-55,283,8,1027.22,38,0
"2017-01-15 21:45:21+00",6.9,7.9,,39.1,-32,289,12,1027.33,37.5,0
"2017-01-15 21:50:21+00",6.6,6.6,,39.1,-39,278,10,1027.43,37.1,0
"2017-01-15 21:55:21+00",6.3,6.3,,38.8,-27,266,13,1027.51,36.6,0
"2017-01-15 22:00:21+00",6.4,7.4,,38.5,-7,264,8,1027.52,36.3,0
"2017-01-15 22:05:21+00",7.2,7.2,,38.2,6,303,10,1027.74,35.9,0
"2017-01-15 22:10:21+00",6.7,7.7,,38.4,20,277,5,1027.66,35.4,0
"2017-01-15 22:15:21+00",6.7,6.7,,38.2,11,278,4,1027.71,35.1,0
"2017-01-15 22:20:21+00",7.1,7.1,,38.2,54,296,6,1027.76,34.9,0
"2017-01-15 22:25:21+00",7.9,8.9,,37.9,65,329,5,1027.8,34.8,0
"2017-01-15 22:30:21+00",8.5,8.5,,37.8,66,358,7,1027.81,34.8,0
"2017-01-15 22:35:21+00",8.6,8.6,,37.4,56,362,7,1027.95,34.6,0
"2017-01-15 22:40:21+00",9.2,10.2,,37.2,80,383,5,1028.03,34,0
"2017-01-15 22:45:21+00",9.7,9.7,,37.2,73,409,8,1028.04,33.7,0
"2017-01-15 22:50:21+00",9.3,10.3,,37.2,85,390,5,1028.16,33.4,0
"2017-01-15 22:55:21+00",8.5,9.5,,37,95,332,-2,1028.01,33.5,0
"2017-01-15 23:00:21+00",8.3,9.3,,36.8,82,345,2,1028.16,33.5,0
"2017-01-15 23:05:21+00",7.7,8.7,,36.5,72,322,0,1028.15,33.4,0
"2017-01-15 23:10:21+00",8.8,9.8,,36.4,46,368,8,1028.44,33.2,0
"2017-01-15 23:15:21+00",7.9,8.9,,36.1,-3,339,13,1028.63,33.1,0
"2017-01-15 23:20:21+00",8.4,9.4,,35.8,-35,360,12,1028.92,32.8,0
"2017-01-15 23:25:21+00",8.3,10.3,,35.5,-18,363,9,1028.86,32.6,0
"2017-01-15 23:30:21+00",8.3,9.3,,35.2,-41,360,13,1028.88,32.5,0
"2017-01-15 23:35:21+00",9.0,10.0,,34.9,-41,383,11,1028.97,32.4,0
"2017-01-15 23:40:21+00",8.2,9.2,,34.7,-31,351,18,1028.9,32.3,0
"2017-01-15 23:45:21+00",7.9,8.9,,34.6,-25,341,15,1029.01,32.1,0
"2017-01-15 23:50:21+00",7.1,7.1,,34.4,-11,304,16,1029.16,31.9,0
"2017-01-15 23:55:21+00",7.6,7.6,,34.2,12,322,4,1029.14,31.6,0
